www.pogodaiklimat.ru
ПОГОДА в Кеми Айос
Время
(UTC), дата
07 15.10
08 15.10
09 15.10
10 15.10
11 15.10
12 15.10
13 15.10
14 15.10
15 15.10
16 15.10
17 15.10
18 15.10
19 15.10
20 15.10
21 15.10
22 15.10
23 15.10
00 16.10
01 16.10
02 16.10
03 16.10
04 16.10
05 16.10
06 16.10
07 16.10
08 16.10
09 16.10
10 16.10
11 16.10
12 16.10
13 16.10
14 16.10
15 16.10
16 16.10
17 16.10
18 16.10
19 16.10
20 16.10
21 16.10
22 16.10
23 16.10
00 17.10
01 17.10
02 17.10
03 17.10
04 17.10
05 17.10
06 17.10
07 17.10
08 17.10
09 17.10
10 17.10
11 17.10
12 17.10
13 17.10
14 17.10
15 17.10
16 17.10
17 17.10
18 17.10
19 17.10
20 17.10
21 17.10
22 17.10
23 17.10
00 18.10
01 18.10
02 18.10
03 18.10
04 18.10
05 18.10
06 18.10
07 18.10
09 18.10
10 18.10
11 18.10
12 18.10
13 18.10
14 18.10
15 18.10
16 18.10
17 18.10
18 18.10
19 18.10
20 18.10
21 18.10
22 18.10
23 18.10
00 19.10
01 19.10
02 19.10
03 19.10
04 19.10
05 19.10
06 19.10
07 19.10
08 19.10
09 19.10
10 19.10
11 19.10
12 19.10
13 19.10
14 19.10
15 19.10
16 19.10
17 19.10
18 19.10
19 19.10
20 19.10
21 19.10
22 19.10
23 19.10
00 20.10
01 20.10
02 20.10
03 20.10
04 20.10
05 20.10
06 20.10
07 20.10
08 20.10
09 20.10
10 20.10
11 20.10
12 20.10
13 20.10
14 20.10
15 20.10
16 20.10
17 20.10
18 20.10
19 20.10
20 20.10
21 20.10
22 20.10
23 20.10
00 21.10
01 21.10
02 21.10
03 21.10
04 21.10
05 21.10
06 21.10
07 21.10
08 21.10
09 21.10
10 21.10
11 21.10
12 21.10
13 21.10
14 21.10
15 21.10
16 21.10
17 21.10
18 21.10
19 21.10
20 21.10
21 21.10
22 21.10
23 21.10
00 22.10
01 22.10
02 22.10
03 22.10
05 22.10
06 22.10
07 22.10
08 22.10
Ветер
(напр.,м/с)
Видим. Явления Облачность Т
(С)
Тd
(С)
f
(%)
Тe
(С)
Тes
(С)
Комфортность P
(гПа)
Po
(гПа)
Тmin
(С)
Tmax
(С)
R
(мм)
R24
(мм)
S
(см)
В 1-2
{2}
50 км ясно -1.0 -1.4 97 -3 -3 прохладно 1018.1 1017.6
ЮВ 2-3
{3}
40 км ясно +2.1 -1.0 80 -1 -0 по сезону 1018.6 1018.2
ЮВ 2-3
{3}
45 км ясно +3.6 -0.4 75 +1 +2 по сезону 1018.7 1018.2
Ю 3-4
{4}
35 км ясно +4.9 +0.2 72 +2 +3 по сезону 1019.0 1018.5
Ю 4-5
{5}
50 км 4/0 1000 м
[]
+5.1 +1.4 77 +1 +2 по сезону 1019.1 1018.6
ЮЗ 5-6
{6}
50 км 10/10 300 м
[]
+5.2 +2.3 82 +1 +1 по сезону 1019.3 1018.8
ЮЗ 5-6
{8}
50 км 10/10 300 м
[]
+4.7 +3.1 89 -0 -0 по сезону 1019.3 1018.8
ЮЗ 4-6
{7}
50 км 10/10 300 м
[]
+4.8 +2.4 84 +1 +1 по сезону 1019.2 1018.7
Ю 5-7
{7}
50 км 10/10 300 м
[]
+5.2 +3.0 86 +1 +1 по сезону 1018.9 1018.4
Ю 6-9
{9}
17 км осадки 9/9 300 м
[]
+5.0 +4.2 95 -0 -0 по сезону 1018.6 1018.1
Ю 9-11
{12}
50 км слаб. ливневой дождь 9/9 200 м
[]
+5.0 +4.6 97 -1 -1 по сезону 1018.5 1018.0
Ю 9-12
{12}
50 км в посл. час снег {ливн. осадки, дождь} 9/9 200 м
[]
+5.2 +4.6 96 -1 -1 по сезону 1018.3 1017.8 -2.1 +5.4
Ю 8-11
{11}
50 км 9/9 200 м
[]
+5.3 +5.0 98 -1 -1 по сезону 1018.2 1017.7
Ю 6-10
{13}
7000 м дождь 10/10 100 м
[]
+4.8 +4.8 100 -1 -1 по сезону 1018.2 1017.7
Ю 8-12
{13}
12 км ливневой дождь 9/9 200 м
[]
+5.3 +5.3 100 -1 -1 по сезону 1017.9 1017.4
ЮЗ 5-7
{11}
50 км в посл. час дождь 9/9 300 м
[]
+5.4 +4.6 95 +1 +1 по сезону 1018.2 1017.7
СЗ 3-4
{5}
50 км 9/9 300 м
[]
+4.3 +4.2 99 0 0 по сезону 1018.1 1017.7
С 4-5
{5}
50 км {ливн. осадки, дождь} 6/6 600 м
[]
+3.1 +3.1 100 -2 -2 по сезону 1018.0 1017.5
-4
{5}
26 км 4/4 50 м
[]
+2.4 +2.4 100 1018.0 1017.6
С 3-4
{4}
27 км 9/9 <50 м
[]
+2.2 +2.2 100 -2 -2 по сезону 1018.1 1017.7
С 3-4
{4}
11 км 9/9 <50 м
[]
+2.3 +2.3 100 -2 -2 по сезону 1018.3 1017.8
СВ 2-3
{4}
9000 м дымка 9/9 <50 м
[]
+2.2 +2.2 100 -1 -1 по сезону 1018.3 1017.8
С 3-4
{4}
35 км 10/10 300 м
[]
+2.4 +2.4 100 -2 -2 по сезону 1018.4 1017.9
СВ 3-4
{4}
35 км 9/9 600 м
[]
+2.2 +2.2 100 -2 -2 по сезону 1018.6 1018.1 +2.1 +5.6
С 4-5
{5}
50 км 9/9 600 м
[]
+2.1 +2.0 99 -3 -3 прохладно 1018.9 1018.4
СВ 4-5
{5}
50 км 9/9 300 м
[]
+2.2 +1.7 96 -3 -3 прохладно 1019.1 1018.6
СВ 3-5
{5}
50 км 10/0 600 м
[]
+2.4 +1.9 96 -2 -2 по сезону 1019.2 1018.7
СВ 3-4
{4}
50 км 9/9 100 м
[]
+2.6 +2.4 99 -2 -2 по сезону 1019.1 1018.6
СВ 3-4
{4}
50 км 10/10 100 м
[]
+2.9 +2.4 97 -1 -1 по сезону 1019.0 1018.5
СВ 3-4
{4}
50 км 10/10 100 м
[]
+3.2 +2.4 94 -1 -1 по сезону 1018.8 1018.3
СВ 3-4
{4}
50 км 10/0 600 м
[]
+3.4 +2.4 93 -1 -0 по сезону 1018.7 1018.2
СВ 3-4
{4}
50 км 10/10 200 м
[]
+3.3 +2.7 96 -1 -1 по сезону 1018.7 1018.2
СВ 4-6
{6}
50 км 9/0 600 м
[]
+2.9 +2.5 97 -2 -2 по сезону 1018.7 1018.3
СВ 4-5
{6}
50 км 10/10 600 м
[]
+2.3 +1.8 96 -3 -3 прохладно 1018.8 1018.3
СВ 5-6
{6}
50 км 9/0 600 м
[]
+1.7 +1.4 98 -4 -4 прохладно 1018.9 1018.5
СВ 5-7
{7}
50 км 9/0 600 м
[]
+1.2 +1.0 99 -5 -5 холодно 1019.0 1018.5 +1.2 +3.5
СВ 4-5
{6}
50 км 9/0 600 м
[]
+1.0 +1.0 100 -5 -5 холодно 1019.2 1018.7
СВ 5-6
{7}
50 км 10/0 600 м
[]
+1.3 +0.9 97 -5 -5 холодно 1019.2 1018.7
СВ 4-5
{6}
50 км 10/0 600 м
[]
+1.5 +0.7 94 -4 -4 прохладно 1019.1 1018.6
СВ 5-6
{6}
50 км 9/9 600 м
[]
+1.4 +0.5 94 -5 -5 холодно 1019.1 1018.6
СВ 3-5
{5}
50 км 10/0 600 м
[]
+1.4 +0.8 96 -3 -3 прохладно 1019.2 1018.7
СВ 5-6
{6}
50 км 9/0 600 м
[]
+1.0 +1.0 100 -5 -5 холодно 1019.0 1018.5
СВ 4-6
{7}
50 км 10/0 600 м
[]
+1.1 +1.1 100 -4 -4 прохладно 1018.9 1018.4
СВ 3-5
{7}
50 км 10/0 600 м
[]
+1.0 +1.0 100 -4 -4 прохладно 1018.8 1018.3
СВ 4-5
{6}
50 км 10/10 100 м
[]
+1.1 +1.1 100 -4 -4 прохладно 1018.4 1018.0
СВ 4-5
{6}
50 км 10/10 50 м
[]
+1.0 +1.0 100 -5 -5 холодно 1018.6 1018.2
СВ 4-5
{5}
29 км 9/9 50 м
[]
+0.9 +0.9 100 -5 -5 холодно 1018.7 1018.2
СВ 2-4
{5}
13 км 9/9 50 м
[]
+1.0 +1.0 100 -3 -3 прохладно 1018.7 1018.2 +0.8 +1.6
В 2-3
{4}
45 км 10/0 600 м
[]
+1.2 +1.2 100 -3 -2 прохладно 1019.1 1018.6
В 2-4
{4}
50 км 10/0 600 м
[]
+1.6 +0.7 94 -2 -2 по сезону 1019.1 1018.6
В 3-6
{6}
50 км 9/0 600 м
[]
+2.4 -0.3 82 -2 -1 по сезону 1018.9 1018.5
В 4-7
{7}
50 км 10/10 600 м
[]
+2.1 -2.1 74 -3 -3 прохладно 1018.5 1018.0
В 4-7
{8}
50 км 10/0 300 м
[]
+1.8 -2.3 74 -3 -3 прохладно 1018.3 1017.8
В 4-7
{8}
50 км 9/9 300 м
[]
+1.5 -2.5 75 -3 -3 прохладно 1018.0 1017.5
В 3-7
{7}
50 км 10/0 300 м
[]
+1.4 -2.1 77 -3 -3 прохладно 1017.4 1016.9
В 3-6
{8}
50 км 9/0 300 м
[]
+1.1 -2.0 80 -3 -3 прохладно 1016.8 1016.3
В 3-6
{8}
50 км 10/0 300 м
[]
+0.9 -2.1 80 -3 -3 прохладно 1016.9 1016.4
В 3-6
{6}
50 км 10/0 300 м
[]
+0.9 -1.9 82 -4 -4 прохладно 1016.6 1016.1
В 3-8
{8}
50 км 10/0 300 м
[]
+0.7 -1.7 84 -4 -4 прохладно 1016.2 1015.7
В 3-6
{9}
50 км 10/0 300 м
[]
+0.8 -1.5 85 -4 -4 прохладно 1015.8 1015.3 +0.6 +2.4
ЮВ 6-10
{10}
50 км 9/9 300 м
[]
+1.4 -1.0 84 -5 -5 холодно 1015.3 1014.8
ЮВ 6-9
{9}
50 км 9/9 300 м
[]
+1.5 -1.1 83 -5 -5 холодно 1015.1 1014.6
ЮВ 7-9
{10}
50 км 9/9 300 м
[]
+1.6 -0.6 85 -5 -5 холодно 1014.5 1014.0
ЮВ 7-9
{10}
50 км 10/10 300 м
[]
+1.5 -0.5 87 -5 -5 холодно 1014.1 1013.6
ЮВ 6-10
{10}
50 км 10/10 300 м
[]
+1.7 0.0 88 -5 -5 холодно 1013.6 1013.1
ЮВ 5-8
{10}
50 км 10/0 300 м
[]
+2.0 +0.5 90 -4 -4 прохладно 1013.2 1012.7
ЮВ 5-8
{9}
50 км 10/10 300 м
[]
+2.3 +0.9 90 -3 -3 прохладно 1012.8 1012.3
ЮВ 5-7
{9}
12 км морось 10/10 300 м
[]
+2.2 +1.4 94 -3 -3 прохладно 1012.4 1011.9
ЮВ 5-7
{8}
7000 м слаб. дождь {морось} 10/10 100 м
[]
+1.5 +1.5 100 -4 -4 прохладно 1011.7 1011.2
ЮВ 6-9
{9}
8000 м морось 10/10 200 м
[]
+1.7 +1.6 99 -5 -5 холодно 1011.3 1010.8
Ю 5-8
{9}
17 км слаб. ливневой дождь 10/10 200 м
[]
+2.1 +1.8 98 -4 -4 прохладно 1011.0 1010.5
Ю 4-7
{7}
35 км ливневой дождь 10/10 300 м
[]
+2.2 +1.6 96 -3 -3 прохладно 1010.8 1010.3 +0.8 +2.5
Ю 4-7
{7}
50 км 10/0 300 м
[]
+2.4 +1.5 94 -3 -3 прохладно 1010.8 1010.4
Ю 4-6
{6}
40 км морось {дождь} 9/9 200 м
[]
+2.7 +2.1 96 -2 -2 по сезону 1010.4 1009.9
Ю 4-6
{6}
50 км в посл. час морось 9/9 300 м
[]
+3.2 +1.9 91 -2 -2 по сезону 1010.0 1009.5
Ю 4-6
{8}
35 км 9/9 300 м
[]
+3.3 +2.0 91 -1 -1 по сезону 1009.9 1009.5
Ю 4-6
{7}
50 км 9/9 200 м
[]
+3.6 +2.5 93 -1 -1 по сезону 1009.5 1009.0
Ю 4-7
{7}
21 км 9/9 100 м
[]
+3.4 +3.4 100 -2 -2 по сезону 1009.3 1008.8
ЮВ 5-7
{7}
50 км 9/9 100 м
[]
+3.7 +3.7 100 -2 -2 по сезону 1008.9 1008.4
Ю 5-7
{8}
н/о 9/9 100 м
[]
+4.3 +4.3 100 -1 -1 по сезону 1008.6 1008.2
Ю 5-8
{8}
н/о 9/9 100 м
[]
+4.4 +4.4 100 -1 -1 по сезону 1008.4 1008.0
Ю 6-8
{9}
н/о 9/9 100 м
[]
+4.3 +4.3 100 -1 -1 по сезону 1008.1 1007.6
Ю 6-9
{10}
н/о 9/9 50 м
[]
+4.3 +4.3 100 -1 -1 по сезону 1007.8 1007.3 +2.2 +4.6
Ю 6-9
{9}
н/о 9/9 100 м
[]
+4.5 +4.5 100 -1 -1 по сезону 1007.4 1007.0
Ю 7-10
{10}
н/о 9/9 50 м
[]
+5.0 +5.0 100 -1 -1 по сезону 1007.3 1006.8
Ю 5-8
{9}
н/о 9/0 50 м
[]
+5.1 +5.1 100 0 0 по сезону 1007.0 1006.5
Ю 6-9
{9}
н/о 9/9 50 м
[]
+5.7 +5.7 100 +1 +1 по сезону 1006.6 1006.2
СЗ 2-2
{8}
н/о 9/9 50 м
[]
+5.1 +5.1 100 +2 +2 по сезону 1006.4 1006.0
С 1-2
{2}
н/о ?/? +4.7 +4.7 100 +3 +3 по сезону 1006.2 1005.7
СВ 1-1
{2}
н/о 9/9 100 м
[]
+4.6 +4.6 100 +3 +3 по сезону 1005.9 1005.4
С 1-2
{2}
н/о 9/9 50 м
[]
+4.5 +4.5 100 +3 +3 по сезону 1006.0 1005.6
С 1-1
{1}
н/о 9/9 200 м
[]
+4.4 +4.4 100 +3 +3 по сезону 1006.0 1005.5
-4
{4}
н/о ?/? +3.9 +3.9 100 1006.2 1005.7
СВ 3-4
{5}
н/о 9/9 <50 м
[]
+3.5 +3.5 100 -1 -1 по сезону 1006.4 1006.0
С 4-5
{5}
13 км в посл. час морось 9/9 200 м
[]
+3.4 +3.4 100 -2 -2 по сезону 1006.5 1006.0 +3.4 +5.8
С 6-7
{7}
12 км морось 9/9 50 м
[]
+3.2 +3.2 100 -3 -3 прохладно 1006.2 1005.8
СВ 7-8
{8}
50 км в посл. час морось 9/9 100 м
[]
+2.9 +2.9 100 -4 -4 прохладно 1006.4 1005.9
С 7-9
{9}
20 км {ливн. осадки, дождь} 9/9 100 м
[]
+2.6 +2.6 100 -4 -4 прохладно 1006.5 1006.0
С 8-10
{11}
45 км морось 9/9 100 м
[]
+2.5 +2.5 100 -5 -5 холодно 1006.7 1006.2
СВ 9-11
{11}
40 км морось 9/9 200 м
[]
+2.4 +2.4 100 -5 -5 холодно 1006.5 1006.0
СВ 12-14
{14}
26 км слаб. дождь 9/9 100 м
[]
+2.3 +2.3 100 -6 -6 холодно 1006.5 1006.1
СВ 11-13
{14}
14 км слаб. дождь 9/9 100 м
[]
+2.0 +2.0 100 -6 -6 холодно 1006.3 1005.8
СВ 11-13
{14}
40 км слаб. дождь 9/9 100 м
[]
+2.2 +2.2 100 -6 -6 холодно 1006.4 1005.9
СВ 11-15
{16}
40 км морось {дождь} 9/9 300 м
[]
+2.3 +1.9 97 -6 -6 холодно 1006.7 1006.2
С 12-15
{15}
50 км слаб. морось 10/10 300 м
[]
+2.1 +1.3 94 -6 -6 холодно 1007.0 1006.5
СВ 13-17
{17}
50 км 10/10 300 м
[]
+1.8 +0.1 88 -7 -7 холодно 1007.6 1007.1
С 13-17
{17}
50 км {дождь, морось} 10/0
[]
+1.6 -0.7 85 -7 -7 холодно 1008.1 1007.6 +1.5 +3.4
С 14-17
{17}
50 км 9/9
[]
+1.3 -2.0 79 -7 -7 холодно 1008.8 1008.3
С 12-15
{17}
50 км 9/0
[]
+1.0 -1.9 81 -7 -7 холодно 1009.7 1009.2
С 12-15
{15}
50 км 1/0
[]
+0.3 -2.3 83 -8 -8 очень
холодно
1010.6 1010.1
С 12-15
{16}
50 км ясно -0.2 -2.8 83 -9 -9 очень
холодно
1011.9 1011.4
С 12-15
{17}
50 км ясно -0.7 -2.9 85 -10 -10 очень
холодно
1013.1 1012.6
С 11-14
{15}
50 км ясно -1.0 -3.7 82 -10 -10 очень
холодно
1014.2 1013.7
С 10-14
{15}
50 км ясно -1.3 -3.8 83 -10 -10 очень
холодно
1015.3 1014.8
С 9-11
{13}
50 км ясно -2.0 -4.3 84 -10 -10 очень
холодно
1016.4 1015.9
С 9-11
{13}
50 км ясно -2.5 -4.6 85 -11 -11 очень
холодно
1017.1 1016.6
СВ 10-12
{13}
50 км ясно -2.8 -4.6 87 -12 -12 очень
холодно
1017.9 1017.4
СВ 9-12
{12}
50 км ясно -3.5 -5.2 88 -12 -12 очень
холодно
1018.4 1017.9
СВ 8-11
{12}
50 км ясно -3.9 -5.3 90 -13 -13 очень
холодно
1019.0 1018.5 -3.9 +1.5
СВ 6-8
{10}
50 км ясно -3.7 -5.4 88 -11 -11 очень
холодно
1019.7 1019.2
СВ 6-8
{9}
50 км ясно -3.0 -5.4 83 -10 -10 очень
холодно
1020.0 1019.5
СВ 4-5
{7}
н/о ясно -2.0 -5.7 76 -8 -7 очень
холодно
1020.4 1019.9
СВ 5-6
{6}
50 км ясно -1.0 -5.7 70 -7 -7 холодно 1020.4 1019.9
СВ 4-5
{6}
50 км ясно -0.1 -5.2 68 -5 -5 холодно 1020.1 1019.6
В 2-4
{5}
45 км ясно +0.7 -5.2 65 -2 -2 по сезону 1019.9 1019.4
В 2-3
{4}
50 км ясно +0.7 -6.3 59 -2 -2 по сезону 1019.7 1019.2
В 2-3
{4}
50 км ясно -0.5 -6.3 65 -4 -4 прохладно 1019.5 1019.0
В 2-4
{4}
50 км ясно -1.2 -5.4 73 -5 -5 холодно 1019.3 1018.8
В 3-5
{5}
50 км ясно -2.0 -4.5 83 -7 -7 холодно 1019.1 1018.6
В 2-5
{5}
50 км 9/0 300 м
[]
-1.7 -3.5 87 -6 -6 холодно 1018.7 1018.2
ЮВ 4-7
{7}
18 км туман местами 10/0 300 м
[]
-0.9 -3.0 86 -7 -7 холодно 1018.3 1017.8 -3.9 +0.9
ЮВ 3-5
{6}
14 км слаб. дождь со снегом 9/9 300 м
[]
-1.2 -2.0 94 -6 -6 холодно 1017.8 1017.3
ЮВ 2-4
{5}
18 км слаб. ливневой снег 9/9 300 м
[]
-1.1 -1.9 94 -5 -5 холодно 1017.1 1016.6
ЮВ 3-5
{6}
9000 м слаб. ливневой снег 10/10 200 м
[]
-0.6 -1.0 97 -6 -6 холодно 1016.8 1016.3
ЮВ 3-3
{5}
12 км ливневой дождь 9/9 300 м
[]
-1.1 -1.1 100 -6 -6 холодно 1016.2 1015.7
В 2-3
{4}
40 км слаб. ливневой дождь 10/10 100 м
[]
-1.4 -1.4 100 -6 -6 холодно 1015.9 1015.4
В 2-3
{4}
35 км слаб. ливневой снег 10/10 200 м
[]
-1.7 -1.7 100 -6 -6 холодно 1015.4 1014.9
В 2-3
{3}
21 км слаб. ливневой дождь 9/9 100 м
[]
-1.6 -1.6 100 -6 -6 холодно 1014.9 1014.4
В 2-2
{3}
50 км 10/10 200 м
[]
-1.6 -1.6 100 -6 -6 холодно 1014.5 1014.0
ЮВ 3-4
{4}
45 км {ливн. осадки} 1/0 600 м
[]
-2.0 -2.0 100 -7 -7 холодно 1014.1 1013.6
ЮВ 2-3
{4}
40 км ясно -1.8 -1.8 100 -6 -6 холодно 1013.9 1013.4
ЮВ 2-3
{3}
35 км ясно -2.2 -2.2 100 -6 -6 холодно 1013.8 1013.3
СЗ 3-4
{5}
50 км {ливн. осадки} 4/0 600 м
[]
-0.1 -0.6 96 -5 -5 холодно 1013.9 1013.4 -2.8 +0.3
СЗ 2-2
{6}
100 м туман ?/? -2.3 -2.4 99 -7 -7 холодно 1014.2 1013.7
С 1-2
{2}
20 км в посл. час туман 1/0 <50 м
[]
-1.9 -1.9 100 -4 -4 прохладно 1014.0 1013.5
З 1-1
{2}
35 км {метель} 1/0
[]
-0.8 -1.8 93 -3 -2 прохладно 1014.2 1013.7
СЗ 2-3
{4}
45 км ясно -0.6 -1.8 92 -4 -4 прохладно 1014.6 1014.1
З 2-3
{4}
50 км 1/0
[]
+0.5 -1.5 86 -3 -2 прохладно 1014.6 1014.1
З 4-5
{5}
50 км {метель} 4/0
[]
+0.9 -1.4 85 -4 -4 прохладно 1014.3 1013.8
З 5-6
{7}
50 км 6/4 300 м
[]
+1.1 -1.1 85 -5 -5 холодно 1014.2 1013.7
З 4-5
{7}
50 км 1/0 300 м
[]
+0.8 -2.0 82 -4 -4 прохладно 1014.0 1013.5
ЮЗ 4-5
{5}
50 км ясно +1.0 -2.7 76 -4 -4 прохладно 1013.9 1013.4
ЮЗ 5-6
{6}
50 км ясно +1.7 -2.3 75 -4 -4 прохладно 1013.3 1012.8
ЮЗ 6-7
{8}
50 км 9/0
[]
+2.2 -1.1 79 -4 -4 прохладно 1013.1 1012.6
ЮЗ 3-4
{7}
50 км 9/0
[]
+2.2 -0.8 81 -2 -2 по сезону 1012.4 1012.0 -2.5 +2.3
Ю 4-6
{6}
50 км 4/1
[]
+3.2 +0.5 82 -1 -1 по сезону 1011.5 1011.1
ЮЗ 9-10
{10}
50 км 9/0
[]
+4.3 +1.1 80 -2 -2 по сезону 1011.1 1010.6
ЮЗ 7-9
{11}
50 км 9/0
[]
+4.2 +1.0 80 -2 -2 по сезону 1010.3 1009.8
ЮЗ 8-11
{12}
50 км 4/4
[]
+4.3 +0.9 79 -2 -2 по сезону 1009.6 1009.1
Ю 8-11
{12}
50 км 9/9
[]
+4.3 +0.8 78 -2 -2 по сезону 1008.9 1008.5
Ю 9-13
{13}
50 км 9/9 300 м
[]
+4.6 +2.7 87 -2 -2 по сезону 1007.6 1007.1
ЮЗ 9-11
{14}
50 км 9/1 300 м
[]
+4.1 +1.4 83 -2 -2 по сезону 1006.6 1006.2
ЮЗ 8-9
{12}
50 км 9/1 300 м
[]
+4.0 +1.7 85 -2 -2 по сезону 1005.6 1005.1
ЮЗ 8-11
{11}
50 км 9/9 1500 м
[]
+4.5 +1.9 83 -2 -2 по сезону 1004.5 1004.0
ЮЗ 6-8
{9}
10 км слаб. дождь 9/9 200 м
[]
+3.1 +2.9 99 -3 -3 прохладно 1002.0 1001.5
Ю 6-9
{9}
16 км слаб. дождь 10/10 100 м
[]
+3.3 +3.3 100 -3 -3 прохладно 1000.1 999.6 +1.9 +4.7
Ю 6-11
{13}
8000 м морось 10/10 100 м
[]
+3.3 +3.3 100 -3 -3 прохладно 998.2 997.8
Ю 8-13
{14}
12 км слаб. дождь 10/10 100 м
[]
+4.4 +4.4 100 -2 -2 по сезону 996.7 996.2
Местоположение метеостанции Кеми Айос (Финляндия): широта 65.67 долгота 24.52 высота над уровнем моря 3 м.
В архиве по умолчанию представлена погода в Кеми Айос за последнюю неделю. Архивные данные за месяц целиком и за предыдущие месяцы, начиная с января 2011 года, Вы можете получить, выбрав интересующий диапазон дат из раскрывающегося списка и нажав кнопку "Найти!".
*Определитесь, кто Вы:
Внимание! Время в таблицах - всемирное. Для получения местного времени необходимо прибавить поправку, которая равна 1 ч.
Смотрите также архив погоды в соседних городах и на ближайших метеорологических станциях:
Партнеры нашего сайта:      
Пояснения к столбцам:
  • Ветер - указаны скорость ветра в м/с - средняя за 10 мин, порывы в срок и между сроками (в фигурных скобках) и направление, откуда дует ветер: С - северный,
  • СВ - северо-восточный, В - восточный, ЮВ - юго-восточный, Ю - южный, ЮЗ - юго-западный, З - западный, СЗ - северо-западный.
  • Видимость - горизонтальная дальность видимости в метрах или километрах. При видимости от 1 до 10 км при отсутствии осадков обычно наблюдается дымка, при ухудшении видимости до 1 км и менее - туман. В сухую погоду видимость может ухудшаться дымом, пылью или мглою.
  • Явления - указаны атмосферные явления, наблюдавшиеся в срок или в последний час перед сроком; фигурными скобками обозначены явления, наблюдавшиеся между сроками (за 1-3 часа до срока); квадратными скобками обозначены град или гололедные отложения с указанием их диаметра в мм.
  • Облачность - указаны через наклонную черту общая и нижняя облачность в баллах и высота нижней границы облаков в метрах; квадратными скобками обозначены формы облаков: Ci - перистые, Cs - перисто-слоистые, Cc - перисто-кучевые, Ac - высококучевые, As - высокослоистые, Sc - слоисто-кучевые, Ns - слоисто-дождевые, Cu - кучевые, Cb - кучево-дождевые. Подробнее классификацию облаков см. в Атласе облаков (PDF).
  • T - Температура воздуха - температура, измеренная на высоте 2 м над землей.
  • Td - Температура точки росы - температура, при понижении до которой содержащийся в воздухе водяной пар достигнет насыщения.
  • f - Относительная влажность воздуха - влажноcть воздуха, измеренная на высоте 2 м над землей.
  • Te - Эффективная температура - температура, которую ощущает одетый по сезону человек в тени. Характеристика душности погоды. При расчете учитывается влияние влажности воздуха и скорости ветра на теплоощущения человека.
  • Tes - Эффективная температура на солнце - температура, которую ощущает человек, с поправкой на солнечный нагрев. Характеристика знойности погоды. Зависит от высоты солнца над горизонтом, облачности и скорости ветра. Ночью, в пасмурную погоду, а также при ветре 12 м/с и более поправка равна нулю.
  • P - Атмосферное давление - приведенное к уровню моря атмосферное давление.
  • Po - Атмосферное давление - измеренное на уровне метеостанции атмосферное давление.
  • Tmin - Минимальная температура - минимум температуры воздуха на высоте 2 м над землей.
  • Tmax - Максимальная температура - максимум температуры воздуха на высоте 2 м над землей.
  • R - Количество осадков - Количество выпавших осадков за период времени, мм. При наведении курсора мыши на число - период времени, за который выпало указанное количество осадков.
  • R24 - Количество осадков - Количество выпавших осадков за 24 часа, мм.
  • S - Снежный покров - Высота снежного покрова, см. При наведении курсора мыши на число - состояние снежного покрова и степень покрытия местности в баллах.